SCP
1 1 1 1 0 0 0 0 0 0 0 0 0 0 0 0 0 0 0 0 1 1 1 1 1 0 0 0 0 0 0 0 0 0 0 0 0 0 0 0 0 0 0
1 1 1 1 1 1 1 1 1 1 1 1 0 0 0 0 0 0 0 0 0 1 1 1 1 1 1 1 0 0 0 0 0 0 0 0 0 0 0 0 0 0 0
1 1 1 1 1 1 1 1 1 1 1 1 1 1 1 1 1 1 1 0 0 0 0 1 1 1 1 1 0 0 0 0 0 0 0 0 0 0 0 0 0 0 0
1 1 1 1 1 1 1 1 1 1 1 1 1 1 1 1 1 1 1 1 0 0 0 0 0 0 0 0 0 0 0 0 0 0 0 0 0 0 0 0 0 0 0
1 1 1 1 1 1 1 1 1 1 1 1 1 1 1 1 1 1 1 1 0 0 0 0 0 0 0 0 0 0 0 0 0 0 0 0 0 0 0 0 0 0 0
1 1 1 1 1 1 1 1 1 1 1 1 1 1 1 1 1 1 1 0 0 0 0 0 0 0 0 0 0 0 0 0 0 0 0 0 0 0 0 0 0 0 0
1 1 1 1 1 1 1 1 1 1 1 1 1 0 0 0 0 0 0 0 0 0 0 0 0 0 0 0 0 0 0 0 0 0 0 0 0 0 0 0 0 0 0
1 1 1 1 1 1 1 1 1 1 1 1 1 0 0 0 0 0 0 0 0 0 0 0 0 0 0 0 0 0 0 0 0 0 0 0 0 0 0 0 0 0 0
1 1 1 1 1 1 1 1 1 1 1 0 0 0 0 0 0 0 0 0 0 0 0 0 0 0 0 0 0 0 0 0 0 0 0 0 0 0 0 0 0 0 0
0 0 0 0 0 0 1 1 1 0 0 0 0 0 0 0 0 0 0 0 0 0 0 0 0 0 0 0 0 0 0 0 0 0 0 0 0 0 0 0 0 0 0
0 0 0 0 0 0 0 0 0 0 0 0 0 0 0 0 0 0 0 0 0 0 0 0 0 0 0 0 0 0 0 0 0 0 0 0 0 0 0 0 0 0 0
0 0 0 0 0 0 0 0 0 0 0 0 0 0 0 0 0 0 0 0 0 0 0 0 0 0 0 0 0 0 0 0 0 0 0 0 0 0 0 0 0 0 0
0 0 0 0 0 0 0 0 0 0 0 0 0 0 0 0 0 0 0 0 0 0 0 0 0 0 0 0 0 0 0 0 0 -0 -0 0 0 0 0 0 0 0 0
0 0 0 0 0 0 0 0 0 0 0 0 0 0 0 0 0 0 0 0 0 0 0 0 0 0 0 0 0 0 0 0 0 0 0 0 0 0 0 0 0 0 0
0 0 0 0 0 0 0 0 0 0 0 0 0 0 0 0 0 0 0 0 0 0 0 0 0 0 0 0 0 0 0 0 0 0 0 0 0 0 0 0 0 0 0
0 0 0 0 0 0 0 0 0 0 0 0 0 0 0 0 0 0 0 0 0 0 0 0 0 0 0 0 0 0 0 0 0 0 0 0 0 0 0 0 0 0 0
0 0 0 0 0 0 0 0 0 0 0 0 0 0 0 0 0 0 0 0 0 0 0 0 0 0 0 0 0 0 0 0 0 0 0 0 0 0 0 0 0 0 0
0 0 0 0 0 0 0 0 0 0 0 0 0 0 0 0 0 0 0 0 0 0 0 0 0 0 0 0 0 0 0 0 0 0 0 0 0 0 0 0 0 0 0
0 0 0 0 0 0 0 0 0 0 0 0 0 0 0 0 0 0 0 0 0 0 0 0 0 0 0 0 0 0 0 0 0 0 0 0 0 0 0 0 0 0 0
0 0 0 0 0 0 0 0 0 0 0 0 0 0 0 0 0 0 0 0 0 0 0 0 0 0 0 0 0 0 0 0 0 0 0 0 0 0 0 0 0 0 0
0 0 0 0 0 0 0 0 0 0 0 0 0 0 0 0 0 0 0 0 0 0 0 0 0 0 0 0 0 0 0 0 0 0 0 0 0 0 0 0 0 0 0
0 0 0 0 0 0 0 0 0 0 0 0 0 0 0 0 0 0 0 0 0 0 0 0 0 0 0 0 0 0 0 0 0 0 0 0 0 0 0 0 0 0 0
0 0 0 0 0 0 0 0 0 0 0 0 0 0 0 0 0 0 0 0 0 0 0 0 0 0 0 0 0 0 0 0 0 0 0 0 0 0 0 0 0 0 0
0 0 0 0 0 0 0 0 0 0 0 0 0 0 0 0 0 0 0 0 0 0 0 0 0 0 0 0 0 0 0 0 0 0 0 0 0 0 0 0 0 0 0
0 0 0 0 0 0 0 0 0 0 0 0 0 0 0 0 0 0 0 0 0 0 0 0 0 0 0 0 0 0 0 0 0 0 0 0 0 0 0 0 0 0 0
0 0 0 0 0 0 0 0 0 0 0 0 0 0 0 0 0 0 0 0 0 0 0 0 0 0 0 0 0 0 0 0 0 0 0 0 0 0 0 0 0 0 0
Wind_Speed
4 4 4 5 7 7 8 7 6 6 4 2 2 2 1 2 3 5 5 8 8 6 5 3 3 2 3 3 4 5 5 4 4 4 4 4 4 4 3 3 4 4 4
2 2 3 3 4 3 4 4 4 4 3 1 1 2 2 2 3 5 5 6 8 8 7 6 5 4 3 3 1 1 2 2 2 1 2 2 1 1 1 1 1 2 2
3 2 1 2 2 1 2 1 3 3 3 2 2 1 3 3 4 4 5 5 5 8 9 9 9 8 7 7 6 5 3 2 2 1 0 1 1 1 0 1 1 2 2
4 2 2 3 3 1 2 1 1 2 2 2 2 2 3 3 4 5 5 5 4 5 8 10 11 11 10 9 8 7 6 5 4 4 3 2 3 3 3 3 3 3 3
2 2 2 2 2 1 2 2 2 2 2 2 3 3 3 3 4 5 6 6 5 5 5 8 12 13 13 12 11 10 10 10 9 8 7 6 6 5 5 5 5 4 4
2 2 2 2 2 2 2 2 3 2 2 2 2 4 3 4 4 5 5 5 5 6 6 6 6 10 15 15 15 14 13 13 12 12 12 11 10 9 8 8 8 8 7
2 2 2 2 2 2 3 4 3 4 3 2 2 3 3 4 5 4 4 5 6 6 7 7 5 5 7 15 16 15 14 14 13 13 13 13 12 12 11 9 8 7 7
1 2 1 1 1 2 2 3 3 3 3 2 2 3 3 2 3 5 4 4 5 5 6 7 6 6 5 5 10 15 14 13 12 12 12 11 11 10 10 9 9 9 9
5 5 4 3 2 2 3 2 2 3 3 2 2 1 2 3 3 3 5 5 4 4 4 4 6 6 6 5 5 11 14 13 12 11 10 10 9 9 9 8 8 7 7
9 8 7 7 6 5 5 4 3 2 3 3 2 3 3 3 4 3 3 3 5 5 4 4 5 5 5 6 7 10 11 11 10 10 9 9 8 8 7 7 7 7 7
10 10 9 8 8 6 6 7 6 5 4 3 3 2 3 3 3 3 3 3 2 3 3 3 3 3 4 5 5 6 8 7 7 7 7 7 7 8 8 7 7 7 7
8 10 10 9 8 7 8 8 8 9 7 7 5 4 3 3 2 2 3 3 3 2 2 2 2 2 3 4 5 6 5 4 4 4 5 6 6 7 8 8 8 8 8
7 8 8 8 8 8 8 9 9 9 9 8 7 5 5 4 2 2 3 3 4 3 2 2 2 2 3 4 3 4 4 3 2 1 2 4 5 6 7 7 8 8 9
7 8 9 9 9 9 9 8 8 7 7 8 8 5 4 4 3 2 2 2 3 3 2 2 2 2 1 3 2 3 4 6 4 2 2 2 4 5 6 7 7 8 9
8 9 9 9 8 8 7 7 7 7 6 6 6 5 3 3 3 3 3 3 2 2 3 3 2 3 1 2 2 2 3 8 8 5 4 3 3 4 5 6 7 7 8
8 8 8 8 8 7 6 6 6 6 7 7 6 7 6 4 3 3 4 4 4 3 3 3 3 3 1 1 3 3 3 8 10 8 7 5 4 3 4 4 5 6 7
7 7 7 7 7 7 6 5 6 6 7 6 6 6 6 6 5 4 4 4 5 4 3 3 3 3 2 0 1 3 4 3 5 10 9 7 5 3 2 3 4 5 6
7 6 6 6 7 6 5 5 6 6 6 6 6 6 6 5 6 5 4 4 3 3 3 3 1 1 1 1 1 3 3 1 2 9 10 8 7 4 3 1 2 3 4
6 6 5 5 6 5 5 5 5 6 6 6 6 6 6 6 6 5 5 5 4 4 3 2 1 0 0 1 2 3 3 2 3 5 9 9 8 6 4 3 1 2 3
5 5 5 5 6 7 7 6 6 6 6 6 6 7 7 7 6 6 5 6 5 4 3 2 2 2 2 3 3 3 3 2 3 1 1 4 8 8 7 5 3 2 2
6 5 6 7 8 9 9 9 4 6 5 5 5 6 6 6 5 4 5 4 5 4 4 4 3 3 3 3 4 3 3 3 3 2 2 1 3 4 5 6 5 4 2
6 7 8 9 9 8 10 13 10 5 4 4 3 3 5 3 2 1 1 2 3 3 4 4 3 4 4 4 3 4 3 4 3 3 3 3 0 2 3 4 6 6 4
6 7 7 8 8 8 11 12 12 6 3 4 4 4 5 8 7 6 4 4 5 5 3 2 3 4 3 3 4 4 4 4 4 4 3 3 2 1 1 4 9 8 6
5 5 6 7 6 7 10 11 12 4 2 3 4 5 6 7 7 7 7 4 2 2 4 4 2 3 3 3 3 4 5 5 4 3 2 2 2 2 1 3 8 8 7
4 5 6 6 6 5 8 9 10 4 1 3 5 7 6 6 7 9 6 5 5 5 2 3 5 7 8 8 4 3 4 4 4 3 2 2 2 2 1 1 5 9 9
4 5 6 6 6 5 6 8 10 3 2 3 5 6 8 6 6 8 5 5 5 5 6 6 6 7 7 7 7 5 3 3 3 3 3 3 3 2 2 1 1 4 5
Wind_Direction
210 176 185 181 194 192 190 189 202 191 186 196 214 178 107 75 89 104 119 124 124 125 129 142 168 200 227 235 234 233 230 232 236 231 224 228 233 239 246 252 257 256 255
208 206 186 184 214 189 176 184 181 152 152 141 89 55 57 73 74 96 117 117 108 104 97 90 84 75 70 61 61 219 211 212 225 236 228 209 198 220 261 271 277 288 285
187 217 192 194 227 187 138 155 167 140 143 145 121 76 67 55 57 69 85 94 99 88 83 78 71 68 66 62 57 56 58 71 76 82 158 184 156 120 77 47 23 18 356
177 178 216 211 214 193 128 137 145 125 130 125 109 85 81 77 64 63 68 75 79 85 81 79 73 69 65 61 56 54 53 55 55 49 42 51 56 58 68 63 49 35 9
165 177 217 225 202 178 150 187 148 127 132 133 129 111 88 81 76 70 69 70 70 79 84 84 79 71 66 60 56 54 56 57 57 56 55 56 55 55 57 55 48 38 21
187 193 216 204 192 173 158 150 137 124 136 146 133 104 89 86 79 75 75 74 67 71 70 75 74 69 66 60 56 56 59 60 60 60 60 60 60 59 59 58 54 46 37
191 195 217 200 190 186 171 160 154 149 153 140 122 99 77 75 85 77 71 75 74 71 69 66 63 67 69 61 56 55 54 58 60 60 58 58 58 57 53 49 45 39 32
93 169 162 149 153 151 145 159 158 152 143 142 140 139 135 112 75 75 79 76 74 75 75 74 70 68 72 70 60 57 53 53 57 60 60 57 54 52 49 47 46 44 39
48 54 63 72 79 96 90 78 125 151 150 120 66 116 146 145 118 71 65 69 70 74 78 85 80 75 78 74 67 58 58 53 52 53 54 52 48 43 40 36 32 26 19
49 52 56 59 63 68 74 59 55 79 117 133 96 58 68 91 130 124 85 69 67 65 59 69 79 80 83 88 81 72 64 57 51 48 44 40 35 29 22 18 13 6 1
47 51 56 59 60 63 67 65 57 59 67 88 99 97 82 70 72 121 131 128 100 79 75 75 84 86 86 96 96 85 75 63 51 42 34 24 15 8 1 357 351 347 345
52 51 57 59 60 62 63 66 66 63 61 60 60 59 73 78 74 92 121 138 124 105 98 87 91 93 100 95 97 107 102 88 65 42 24 12 3 355 351 347 344 341 339
63 56 60 62 61 62 65 68 69 67 64 64 59 55 55 55 61 73 107 132 133 143 150 138 121 103 99 116 124 148 170 172 152 59 6 355 352 347 343 339 338 337 335
74 70 69 68 67 66 70 70 72 71 71 70 64 56 57 44 41 51 78 107 137 141 127 124 125 114 101 129 158 221 187 200 201 212 268 318 336 341 341 341 339 336 333
81 77 76 74 71 68 70 72 71 68 67 68 62 52 55 48 39 35 38 46 61 132 132 145 127 106 78 126 182 238 188 206 205 211 232 254 289 317 328 335 338 341 341
81 81 79 78 75 70 70 77 79 77 77 73 65 50 41 29 33 34 34 31 25 61 95 109 103 107 69 10 187 275 269 205 203 207 222 236 253 284 312 325 334 342 348
89 88 85 83 81 76 73 77 83 77 74 72 75 74 62 38 27 29 33 40 36 41 68 82 106 135 157 278 229 278 275 202 190 205 214 222 232 246 279 320 338 347 351
79 79 81 84 85 82 73 73 79 77 76 72 66 62 59 56 45 32 28 49 50 39 43 49 69 122 182 189 253 279 295 358 198 200 206 213 218 220 229 268 329 349 354
78 76 78 82 87 89 84 80 79 77 75 71 66 64 59 51 41 29 32 29 26 34 23 360 21 61 323 26 325 311 325 314 298 183 196 209 214 212 210 210 243 308 337
81 78 75 71 68 60 52 53 74 74 74 74 70 66 58 52 35 7 35 28 22 7 356 352 7 28 29 5 355 339 344 333 320 337 215 193 200 199 199 201 215 247 299
87 79 76 68 66 57 37 25 36 80 80 83 85 90 87 83 62 30 39 21 15 6 11 16 18 30 23 11 5 343 351 339 333 354 339 291 168 180 193 203 209 218 238
75 73 69 65 60 53 30 29 26 35 69 78 84 99 126 120 144 214 321 339 359 11 18 5 12 18 17 13 355 344 352 347 334 335 336 312 238 191 191 179 191 196 213
85 85 85 83 74 47 29 23 16 357 47 61 49 37 66 65 36 17 335 265 254 242 249 343 349 352 354 9 353 338 335 324 300 289 311 305 308 285 192 158 180 194 205
90 92 94 94 84 54 30 19 359 338 75 82 68 55 69 61 32 6 338 352 358 204 219 226 306 324 337 345 332 313 306 309 300 295 306 298 308 305 151 155 191 201 212
103 101 99 100 93 68 31 18 0 324 92 96 84 54 57 73 30 6 354 9 20 10 347 292 281 282 285 282 276 311 320 340 335 325 351 332 322 325 305 184 198 213 226
106 102 99 97 94 81 35 21 0 350 63 90 103 94 66 55 30 16 2 2 13 355 338 322 294 276 263 260 240 223 269 321 331 326 348 352 340 348 336 304 208 200 227